Regional Weather Roundup
Issued by NWS

Home | Current Version | Previous Version | Graphics & Text | Print | Product List | Glossary On
Versions: 1 2 3 4 5 6 7 8 9 10 11 12 13 14 15 16 17 18 19 20 21 22 23 24 25 26 27 28 29 30 31 32 33 34 35 36 37 38 39 40 41 42 43 44 45 46 47 48 49 50
000
ASUS43 KMKX 291711
RWRWI

WISCONSIN REGIONAL WEATHER ROUNDUP
NATIONAL WEATHER SERVICE MILWAUKEE/SULLIVAN WI
1200 PM CDT TUE JUL 29 2014

NOTE: "FAIR" INDICATES FEW OR NO CLOUDS BELOW 12,000 FEET WITH NO
SIGNIFICANT WEATHER AND/OR OBSTRUCTIONS TO VISIBILITY.

WIZ001-002-006>008-014>016-023>028-291800-
NORTHWEST WISCONSIN

CITY           SKY/WX    TMP DP  RH WIND       PRES   REMARKS
SUPERIOR ARPT  CLOUDY    73  56  55 NW14G20   30.06R
ASHLAND        MOSUNNY   73  58  59 CALM      30.04F
HAYWARD        PTSUNNY   71  57  61 VRB5      30.07F
SIREN          MOSUNNY   75  56  50 NW6       30.09F
RICE LAKE        N/A    N/A N/A N/A NW8       30.10
LADYSMITH      MOSUNNY   74  57  55 W9        30.09F
EAU CLAIRE     MOSUNNY   77  57  50 NW10      30.08S
MENOMONIE      SUNNY     77  56  49 NW12G17   30.09F
NEW RICHMOND   SUNNY     76  56  51 W8        30.11S
OSCEOLA        SUNNY     75  60  60 NW8       30.13F
$$

WIZ003>005-009-010-017-018-291800-
NORTH CENTRAL WISCONSIN

CITY           SKY/WX    TMP DP  RH WIND       PRES   REMARKS
WOODRUFF       MOSUNNY   72  56  58 NW9       30.05F
RHINELANDER    MOSUNNY   70  55  59 NW12      30.05F HAZE
EAGLE RIVER    CLOUDY    67  51  56 NW10      30.04S
LAND O LAKES   CLOUDY    67  54  61 N6        30.05F
PHILLIPS       MOSUNNY   69  56  62 NW5       30.06F
TOMAHAWK       PTSUNNY   67  55  64 NW8       30.06F
MEDFORD        MOSUNNY   69  57  65 NW5       30.07F
MERRILL        SUNNY     70  56  59 N6        30.05F
$$

WIZ029-030-035-036-043>047-291800-
CENTRAL WISCONSIN

CITY           SKY/WX    TMP DP  RH WIND       PRES   REMARKS
WAUSAU         MOSUNNY   71  54  54 NW12      30.04F
MOSINEE        SUNNY     72  55  56 NW9       30.07S
MARSHFIELD     MOSUNNY   75  53  46 NW12      30.07S
STEVENS POINT  MOSUNNY   69  52  54 NW9       30.05F
WAUPACA        MOSUNNY   75  53  46 NW9       30.03F
WAUTOMA        MOSUNNY   76  53  44 NW10G22   30.05F
WISC RAPIDS    MOSUNNY   75  52  44 NW13      30.07S
CAMP DOUGLAS   SUNNY     75  58  56 NW8       30.07R
$$

WIZ011>013-019>022-031-037>040-048>050-291800-
NORTHEAST WISCONSIN

CITY           SKY/WX    TMP DP  RH WIND       PRES   REMARKS
ANTIGO         MOSUNNY   69  55  60 N12       30.05S
STURGEON BAY   PTSUNNY   66  54  63 NW8       30.00F
GREEN BAY      MOSUNNY   74  57  55 W8        30.00F
MANITOWOC      SUNNY     72  55  55 VRB7      30.01S
APPLETON       PTSUNNY   70  54  56 NW8       30.03F
CLINTONVILLE   MOSUNNY   72  52  49 NW13      30.02F
OSHKOSH        MOSUNNY   72  55  55 W7        30.03S
$$

WIZ032>034-041-042-053>061-291800-
SOUTHWEST WISCONSIN

CITY           SKY/WX    TMP DP  RH WIND       PRES   REMARKS
LA CROSSE      SUNNY     76  58  53 NW7       30.08F
SPARTA         SUNNY     75  53  46 W7        30.09S
VIROQUA        FAIR      73  58  58 W7        30.10F
BOSCOBEL       SUNNY     80  56  43 NW9       30.08F HX  80
PRAIRIE DU CHI MOSUNNY   77  54  45 NW7       30.09S
PLATTEVILLE    FAIR      76  56  48 NW12      30.09F
$$

WIZ056-057-062-063-064-067-068-291800-
SOUTH CENTRAL WISCONSIN

CITY           SKY/WX    TMP DP  RH WIND       PRES   REMARKS
BARABOO/DELLS  SUNNY     75  50  41 N8        30.07S
LONE ROCK      SUNNY     78  57  48 VRB6      30.07F
WATERTOWN      SUNNY     72  55  53 NW9       30.04F
MADISON        MOSUNNY   76  57  51 VRB7      30.06S
MIDDLETON      FAIR      75  54  48 NW12G20   30.07S
MONROE         MOSUNNY   73  55  53 W7        30.07S
JANESVILLE     MOSUNNY   77  54  44 NW9       30.05F
$$

WIZ051-052-058>065-066-070>072-291800-
SOUTHEAST WISCONSIN

CITY           SKY/WX    TMP DP  RH WIND       PRES   REMARKS
MILWAUKEE      PTSUNNY   74  54  49 NW14      30.02F
WAUKESHA       MOSUNNY   72  52  49 W12       30.05S
MILWAUKEE/TIMM NOT AVBL
RACINE         MOSUNNY   74  55  51 NW10      30.04F
BURLINGTON     SUNNY     72  55  54 NW13      30.04S
KENOSHA        MOSUNNY   74  57  55 NW8G17    30.03F
FOND DU LAC    MOSUNNY   73  52  47 NW12G17   30.03F
SHEBOYGAN      MOSUNNY   72  55  55 VRB7      30.02S
WEST BEND      MOSUNNY   70  50  49 NW14      30.04S
JUNEAU         SUNNY     71  50  47 NW7G16    30.06S
$$

LSZ147-162-291800-
LAKE SUPERIOR

STATION/POSITION TIME  TEMP    WIND        PRES    WAVE
                       AIR SEA DIR/SP/G            HT/PER
                 (UTC) (F)     (DEG/KT/KT) (MB)    (FT/S)
W MID LAKE BUOY  1650   50 43  260/  6/  8 1016.9R   1
PORT WING        1600   68     250/ 10/ 12 1017.3
SAXON HARBOR     1600           CALM  /  5 1017.6S
$$

LMZ867-665-643>646-291800-
LAKE MICHIGAN

STATION/POSITION TIME  TEMP    WIND        PRES    WAVE
                       AIR SEA DIR/SP/G            HT/PER
                 (UTC) (F)     (DEG/KT/KT) (MB)    (FT/S)
N MID LAKE BUOY  1650   57 55  270/  6/  6 1014.9R   1
NORTHPORT PIER   1600   63     320/  6/  7 1015.6R
SISTER BAY       1610   65     320/  9/ 10   N/A
KEWAUNEE LAKESHO 1600   68     320/  5/  8 1016.6S
SHEBOYGAN LAKESH 1700   68      80/  5/  6 1016.2F
PORT WASHINGTON  1640   71      50/  3/ 11 1016.9F
ATWATER BUOY     1600   67     320/  6     1017.7F
MILWAUKEE LAKESH 1600   69     320/  8/ 12   N/A
S MID LAKE BUOY  1650   61 61  300/  8/  8 1017.1R   1
KENOSHA   LAKESH 1700   71     340/ 11/ 15 1016.3F
$$

TC  - TEMPERATURE IN CELSIUS
VSB - VISIBILITY IN STATUTE MILES
WCI - WIND CHILL INDEX
HX  - HEAT INDEX




USA.gov is the U.S. government's official web portal to all federal, state and local government web resources and services.